Pilot Vessel Akarana — ZMT2938 — position and weather

sailwx.info

Track history (hours):
 
Tides and Currents Weather Stations Pressure Air Temp Water Temp Dewpoint Dewpoint Depression Visibility Wind Speed Wind Dir Waves Ship Positions

Pilot Vessel Akarana

Last reported at 2014-Oct-31 04:34 UTC. Time now 2014-Oct-31 05:43 UTC.
Position S 36°51' E 174°47'.

Length 15 m; draft 1.6 m.

Type: Pilot. MMSI: 512000344.

Date/timePositionNaut miles runAvg speedWind from/ knotsBaromVisibWave heightAir tempDewpointWater temp
2014-Oct-31 04:34S 36°51' E 174°47'0 0.0
2014-Oct-31 03:33S 36°51' E 174°47'0 0.0
2014-Oct-31 02:34S 36°51' E 174°47'0 0.0
2014-Oct-31 01:33S 36°51' E 174°47'0 0.0
2014-Oct-31 00:33S 36°51' E 174°47'0 0.0
2014-Oct-30 23:33S 36°51' E 174°47'0 0.0
2014-Oct-30 22:17S 36°51' E 174°47'0 0.0
2014-Oct-30 21:33S 36°51' E 174°47'1 1.1
2014-Oct-30 20:26S 36°51' E 174°48'1 0.6
2014-Oct-30 18:27S 36°51' E 174°47'0 0.0
2014-Oct-30 17:33S 36°51' E 174°47'6 6.1
2014-Oct-30 16:33S 36°45' E 174°50'6 5.8
2014-Oct-30 15:31S 36°51' E 174°47'0 0.0
2014-Oct-30 14:34S 36°51' E 174°47'0 0.3
2014-Oct-30 13:33S 36°50' E 174°47'0 0.4
2014-Oct-30 12:33S 36°51' E 174°47'0 0.0
2014-Oct-30 11:33S 36°51' E 174°47'4 3.6
2014-Oct-30 10:33S 36°47' E 174°49'4 3.3
2014-Oct-30 09:28S 36°51' E 174°47'0 0.0
2014-Oct-30 08:33S 36°51' E 174°47'0 0.0
2014-Oct-30 07:33S 36°51' E 174°47'0 0.0
2014-Oct-30 06:33S 36°51' E 174°47'3 3.5
2014-Oct-30 05:34S 36°47' E 174°49'3 3.4
2014-Oct-30 04:32S 36°51' E 174°47'0 0.0
2014-Oct-30 03:13S 36°51' E 174°47'0 0.0
2014-Oct-30 02:33S 36°51' E 174°47'7 6.8
2014-Oct-30 01:34S 36°45' E 174°51'7 6.7
2014-Oct-30 00:33S 36°51' E 174°47'1 1.2
2014-Oct-29 23:31S 36°51' E 174°48'1 1.3
2014-Oct-29 22:33S 36°51' E 174°47'0 0.0
2014-Oct-29 21:33S 36°51' E 174°47'0 0.0
2014-Oct-29 20:33S 36°51' E 174°47'0 0.0
2014-Oct-29 19:33S 36°51' E 174°47'0 0.0
2014-Oct-29 18:33S 36°51' E 174°47'4 3.8
2014-Oct-29 17:32S 36°47' E 174°48'4 3.9
2014-Oct-29 16:34S 36°51' E 174°47'0 0.0
2014-Oct-29 15:33S 36°51' E 174°47'0 0.0
2014-Oct-29 14:33S 36°51' E 174°47'0 0.0
2014-Oct-29 13:32S 36°51' E 174°47'0 0.0
2014-Oct-29 12:29S 36°51' E 174°47'0 0.0
2014-Oct-29 11:34S 36°51' E 174°47'0 0.0
2014-Oct-29 10:33S 36°51' E 174°47'0 0.0
2014-Oct-29 09:33S 36°51' E 174°47'0 0.0
2014-Oct-29 08:33S 36°51' E 174°47'2 1.9
2014-Oct-29 07:33S 36°50' E 174°49'2 0.9
2014-Oct-29 05:23S 36°51' E 174°47'0 0.1
2014-Oct-29 04:31S 36°51' E 174°47'0 0.1
2014-Oct-29 03:05S 36°51' E 174°47'2 4.4
2014-Oct-29 02:34S 36°49' E 174°49'2 2.3
2014-Oct-29 01:33S 36°51' E 174°47'1 1.3
2014-Oct-29 00:28S 36°50' E 174°45'1 1.6
2014-Oct-28 23:33S 36°51' E 174°47'0 0.0
2014-Oct-28 22:33S 36°51' E 174°47'0 0.0
2014-Oct-28 21:33S 36°51' E 174°47'0 0.0
2014-Oct-28 09:32S 36°51' E 174°47'0 0.3
2014-Oct-28 08:32S 36°50' E 174°47'0 0.4
2014-Oct-28 07:33S 36°51' E 174°47'0 0.0
2014-Oct-28 06:33S 36°51' E 174°47'0 0.0
2014-Oct-28 05:33S 36°51' E 174°47'3 3.4
2014-Oct-28 04:33S 36°48' E 174°49'3 3.3
2014-Oct-28 03:32S 36°51' E 174°47'0 0.0
2014-Oct-28 02:33S 36°51' E 174°47'0 0.0
2014-Oct-28 01:33S 36°51' E 174°47'0 0.0
2014-Oct-28 00:33S 36°51' E 174°47'0 0.0
2014-Oct-27 23:33S 36°51' E 174°47'2 2.0
2014-Oct-27 22:34S 36°50' E 174°49'2 2.0
2014-Oct-27 21:34S 36°51' E 174°47'0 0.0
2014-Oct-27 20:33S 36°51' E 174°47'0 0.0
2014-Oct-27 19:33S 36°51' E 174°47'2 1.5
2014-Oct-27 18:33S 36°50' E 174°45'2 1.5
2014-Oct-27 17:33S 36°51' E 174°47'0 0.0
2014-Oct-27 16:33S 36°51' E 174°47'0 0.0
2014-Oct-27 15:33S 36°51' E 174°47'6 5.9
2014-Oct-27 14:33S 36°45' E 174°49'6 5.9
2014-Oct-27 13:34S 36°51' E 174°47'0 0.0
2014-Oct-27 12:34S 36°51' E 174°47'0 0.0
2014-Oct-27 11:34S 36°51' E 174°47'0 0.0
2014-Oct-27 10:33S 36°51' E 174°47'5 4.6
2014-Oct-27 09:33S 36°46' E 174°49'5 4.6
2014-Oct-27 08:33S 36°51' E 174°47'0 0.0
2014-Oct-27 04:32S 36°51' E 174°47'0 0.0
2014-Oct-27 03:33S 36°51' E 174°47'0 0.0
2014-Oct-27 02:33S 36°51' E 174°47'0 0.0
2014-Oct-27 01:32S 36°51' E 174°47'0 0.0
2014-Oct-27 00:23S 36°51' E 174°47'0 0.0
2014-Oct-26 22:31S 36°51' E 174°47'0 0.0
2014-Oct-26 21:26S 36°51' E 174°47'0 0.0
2014-Oct-26 20:09S 36°51' E 174°47'0 0.0
2014-Oct-26 19:06S 36°51' E 174°47'0 0.0
2014-Oct-26 18:33S 36°51' E 174°47'0 0.0
2014-Oct-26 17:33S 36°51' E 174°47'0 0.1
2014-Oct-26 16:33S 36°51' E 174°47'6 0.2
2014-Oct-25 08:34S 36°45' E 174°50'6 6.1
2014-Oct-25 07:33S 36°51' E 174°47'0 0.0
2014-Oct-25 06:32S 36°51' E 174°47'0 0.0
2014-Oct-25 05:32S 36°51' E 174°47'0 0.0
2014-Oct-25 04:34S 36°51' E 174°47'1 1.1
2014-Oct-25 03:33S 36°50' E 174°48'2 2.5
2014-Oct-25 02:33S 36°48' E 174°49'3 3.3
2014-Oct-25 01:33S 36°51' E 174°47'0 0.0
2014-Oct-25 00:33S 36°51' E 174°47'6 6.0
2014-Oct-24 23:33S 36°45' E 174°50'6 6.0
2014-Oct-24 22:33S 36°51' E 174°47'1 1.2
2014-Oct-24 21:30S 36°51' E 174°48'1 1.3
2014-Oct-24 20:33S 36°51' E 174°47'0 0.0
2014-Oct-24 19:31S 36°51' E 174°47'0 0.0
2014-Oct-24 18:33S 36°51' E 174°47'7 6.8
2014-Oct-24 17:33S 36°44' E 174°50'6 6.4
2014-Oct-24 16:33S 36°50' E 174°47'5 0.3
2014-Oct-24 01:33S 36°46' E 174°49'5 0.2
2014-Oct-23 02:13S 36°51' E 174°47'0 0.0
2014-Oct-23 01:33S 36°51' E 174°47'1 0.8
2014-Oct-23 00:33S 36°50' E 174°46'6 6.5
2014-Oct-22 23:34S 36°49' E 174°54'7 6.9
2014-Oct-22 22:29S 36°50' E 174°45'  
Track history (hours):
 
Tides and Currents Weather Stations Pressure Air Temp Water Temp Dewpoint Dewpoint Depression Visibility Wind Speed Wind Dir Waves Ship Positions

Pilot Vessel Akarana

Last reported at 2014-Oct-31 04:34 UTC. Time now 2014-Oct-31 05:43 UTC.
Position S 36°51' E 174°47'.

Length 15 m; draft 1.6 m.

Type: Pilot. MMSI: 512000344.

Date/timePositionNaut miles runAvg speedWind from/ knotsBaromVisibWave heightAir tempDewpointWater temp
2014-Oct-31 04:34S 36°51' E 174°47'0 0.0
2014-Oct-31 03:33S 36°51' E 174°47'0 0.0
2014-Oct-31 02:34S 36°51' E 174°47'0 0.0
2014-Oct-31 01:33S 36°51' E 174°47'0 0.0
2014-Oct-31 00:33S 36°51' E 174°47'0 0.0
2014-Oct-30 23:33S 36°51' E 174°47'0 0.0
2014-Oct-30 22:17S 36°51' E 174°47'0 0.0
2014-Oct-30 21:33S 36°51' E 174°47'1 1.1
2014-Oct-30 20:26S 36°51' E 174°48'1 0.6
2014-Oct-30 18:27S 36°51' E 174°47'0 0.0
2014-Oct-30 17:33S 36°51' E 174°47'6 6.1
2014-Oct-30 16:33S 36°45' E 174°50'6 5.8
2014-Oct-30 15:31S 36°51' E 174°47'0 0.0
2014-Oct-30 14:34S 36°51' E 174°47'0 0.3
2014-Oct-30 13:33S 36°50' E 174°47'0 0.4
2014-Oct-30 12:33S 36°51' E 174°47'0 0.0
2014-Oct-30 11:33S 36°51' E 174°47'4 3.6
2014-Oct-30 10:33S 36°47' E 174°49'4 3.3
2014-Oct-30 09:28S 36°51' E 174°47'0 0.0
2014-Oct-30 08:33S 36°51' E 174°47'0 0.0
2014-Oct-30 07:33S 36°51' E 174°47'0 0.0
2014-Oct-30 06:33S 36°51' E 174°47'3 3.5
2014-Oct-30 05:34S 36°47' E 174°49'3 3.4
2014-Oct-30 04:32S 36°51' E 174°47'0 0.0
2014-Oct-30 03:13S 36°51' E 174°47'0 0.0
2014-Oct-30 02:33S 36°51' E 174°47'7 6.8
2014-Oct-30 01:34S 36°45' E 174°51'7 6.7
2014-Oct-30 00:33S 36°51' E 174°47'1 1.2
2014-Oct-29 23:31S 36°51' E 174°48'1 1.3
2014-Oct-29 22:33S 36°51' E 174°47'0 0.0
2014-Oct-29 21:33S 36°51' E 174°47'0 0.0
2014-Oct-29 20:33S 36°51' E 174°47'0 0.0
2014-Oct-29 19:33S 36°51' E 174°47'0 0.0
2014-Oct-29 18:33S 36°51' E 174°47'4 3.8
2014-Oct-29 17:32S 36°47' E 174°48'4 3.9
2014-Oct-29 16:34S 36°51' E 174°47'0 0.0
2014-Oct-29 15:33S 36°51' E 174°47'0 0.0
2014-Oct-29 14:33S 36°51' E 174°47'0 0.0
2014-Oct-29 13:32S 36°51' E 174°47'0 0.0
2014-Oct-29 12:29S 36°51' E 174°47'0 0.0
2014-Oct-29 11:34S 36°51' E 174°47'0 0.0
2014-Oct-29 10:33S 36°51' E 174°47'0 0.0
2014-Oct-29 09:33S 36°51' E 174°47'0 0.0
2014-Oct-29 08:33S 36°51' E 174°47'2 1.9
2014-Oct-29 07:33S 36°50' E 174°49'2 0.9
2014-Oct-29 05:23S 36°51' E 174°47'0 0.1
2014-Oct-29 04:31S 36°51' E 174°47'0 0.1
2014-Oct-29 03:05S 36°51' E 174°47'2 4.4
2014-Oct-29 02:34S 36°49' E 174°49'2 2.3
2014-Oct-29 01:33S 36°51' E 174°47'1 1.3
2014-Oct-29 00:28S 36°50' E 174°45'1 1.6
2014-Oct-28 23:33S 36°51' E 174°47'0 0.0
2014-Oct-28 22:33S 36°51' E 174°47'0 0.0
2014-Oct-28 21:33S 36°51' E 174°47'0 0.0
2014-Oct-28 09:32S 36°51' E 174°47'0 0.3
2014-Oct-28 08:32S 36°50' E 174°47'0 0.4
2014-Oct-28 07:33S 36°51' E 174°47'0 0.0
2014-Oct-28 06:33S 36°51' E 174°47'0 0.0
2014-Oct-28 05:33S 36°51' E 174°47'3 3.4
2014-Oct-28 04:33S 36°48' E 174°49'3 3.3
2014-Oct-28 03:32S 36°51' E 174°47'0 0.0
2014-Oct-28 02:33S 36°51' E 174°47'0 0.0
2014-Oct-28 01:33S 36°51' E 174°47'0 0.0
2014-Oct-28 00:33S 36°51' E 174°47'0 0.0
2014-Oct-27 23:33S 36°51' E 174°47'2 2.0
2014-Oct-27 22:34S 36°50' E 174°49'2 2.0
2014-Oct-27 21:34S 36°51' E 174°47'0 0.0
2014-Oct-27 20:33S 36°51' E 174°47'0 0.0
2014-Oct-27 19:33S 36°51' E 174°47'2 1.5
2014-Oct-27 18:33S 36°50' E 174°45'2 1.5
2014-Oct-27 17:33S 36°51' E 174°47'0 0.0
2014-Oct-27 16:33S 36°51' E 174°47'0 0.0
2014-Oct-27 15:33S 36°51' E 174°47'6 5.9
2014-Oct-27 14:33S 36°45' E 174°49'6 5.9
2014-Oct-27 13:34S 36°51' E 174°47'0 0.0
2014-Oct-27 12:34S 36°51' E 174°47'0 0.0
2014-Oct-27 11:34S 36°51' E 174°47'0 0.0
2014-Oct-27 10:33S 36°51' E 174°47'5 4.6
2014-Oct-27 09:33S 36°46' E 174°49'5 4.6
2014-Oct-27 08:33S 36°51' E 174°47'0 0.0
2014-Oct-27 04:32S 36°51' E 174°47'0 0.0
2014-Oct-27 03:33S 36°51' E 174°47'0 0.0
2014-Oct-27 02:33S 36°51' E 174°47'0 0.0
2014-Oct-27 01:32S 36°51' E 174°47'0 0.0
2014-Oct-27 00:23S 36°51' E 174°47'0 0.0
2014-Oct-26 22:31S 36°51' E 174°47'0 0.0
2014-Oct-26 21:26S 36°51' E 174°47'0 0.0
2014-Oct-26 20:09S 36°51' E 174°47'0 0.0
2014-Oct-26 19:06S 36°51' E 174°47'0 0.0
2014-Oct-26 18:33S 36°51' E 174°47'0 0.0
2014-Oct-26 17:33S 36°51' E 174°47'0 0.1
2014-Oct-26 16:33S 36°51' E 174°47'6 0.2
2014-Oct-25 08:34S 36°45' E 174°50'6 6.1
2014-Oct-25 07:33S 36°51' E 174°47'0 0.0
2014-Oct-25 06:32S 36°51' E 174°47'0 0.0
2014-Oct-25 05:32S 36°51' E 174°47'0 0.0
2014-Oct-25 04:34S 36°51' E 174°47'1 1.1
2014-Oct-25 03:33S 36°50' E 174°48'2 2.5
2014-Oct-25 02:33S 36°48' E 174°49'3 3.3
2014-Oct-25 01:33S 36°51' E 174°47'0 0.0
2014-Oct-25 00:33S 36°51' E 174°47'6 6.0
2014-Oct-24 23:33S 36°45' E 174°50'6 6.0
2014-Oct-24 22:33S 36°51' E 174°47'1 1.2
2014-Oct-24 21:30S 36°51' E 174°48'1 1.3
2014-Oct-24 20:33S 36°51' E 174°47'0 0.0
2014-Oct-24 19:31S 36°51' E 174°47'0 0.0
2014-Oct-24 18:33S 36°51' E 174°47'7 6.8
2014-Oct-24 17:33S 36°44' E 174°50'6 6.4
2014-Oct-24 16:33S 36°50' E 174°47'5 0.3
2014-Oct-24 01:33S 36°46' E 174°49'5 0.2
2014-Oct-23 02:13S 36°51' E 174°47'0 0.0
2014-Oct-23 01:33S 36°51' E 174°47'1 0.8
2014-Oct-23 00:33S 36°50' E 174°46'6 6.5
2014-Oct-22 23:34S 36°49' E 174°54'7 6.9
2014-Oct-22 22:29S 36°50' E 174°45'  

Dump ship's entire track history